Date String (YYYY-MM-DD hh:mm:ss) UTC,Instrument flags,absolute air pressure of the measurement (hPa),sample flow rate (lpm),inlet stack bypass flow (lpm),air temperature of the measurement (°C),ambient temperature measured by the external sensor (°C),aerosol sample conditioner tube jacket temperature (°C),OPC LED temperature (°C),internal box temperature (°C),relative humidity of the measurement (%),span deviation,mass concentration of particles derived from Lorenz-Mie calculation of OPC scattering (μg/m³),mass concentration of particles derived from Lorenz-Mie calculation of OPC scattering (μg/m³),mass concentration of particles derived from Lorenz-Mie calculation of OPC scattering (μg/m³)
DateTimeUTC,F1_M11,P_M11,Q1_M11,Q2_M11,T1_M11,T2_M11,T3_M11,T4_M11,T5_M11,U1_M11,ZSPAN_M11,X2_M11,X0_M11,X1_M11
2024-01-07 18:00:00,SystemResetWarning,0815.1,5.00,000.00,018.8,017.7,000.0,027.2,020.0,9.9,0000.0,0004.01,0011.82,0003.29
2024-01-07 18:01:00,SystemResetWarning,0815.1,5.00,000.00,018.8,017.7,000.0,027.2,020.0,9.9,0000.0,0004.05,0011.97,0003.30
2024-01-07 18:02:00,SystemResetWarning,0815.0,5.00,000.00,018.8,017.7,000.0,027.2,020.0,9.9,0000.0,0004.05,0012.03,0003.29
2024-01-07 18:03:00,SystemResetWarning,0815.0,5.00,000.00,018.8,017.7,000.0,027.2,020.0,9.9,0000.0,0004.01,0012.36,0003.27
2024-01-07 18:04:00,SystemResetWarning,0814.9,4.99,000.00,018.8,017.6,000.0,027.2,020.0,9.9,0000.0,0004.01,0012.57,0003.26
2024-01-07 18:05:00,SystemResetWarning,0814.9,5.00,000.00,018.8,017.6,000.0,027.2,020.0,9.9,0000.0,0003.97,0012.73,0003.24
2024-01-07 18:06:00,SystemResetWarning,0814.9,5.00,000.00,018.8,017.6,000.0,027.2,020.0,9.9,0000.0,0003.94,0011.67,0003.21
2024-01-07 18:07:00,SystemResetWarning,0814.9,5.00,000.00,018.8,017.7,000.0,027.2,020.0,9.9,0000.0,0003.89,0010.97,0003.19
2024-01-07 18:08:00,SystemResetWarning,0814.9,5.00,000.00,018.8,017.7,000.0,027.2,020.0,9.9,0000.0,0003.85,0010.03,0003.17
2024-01-07 18:09:00,SystemResetWarning,0814.9,5.01,000.00,018.7,017.7,000.0,027.2,020.0,9.9,0000.0,0003.82,0009.74,0003.16
2024-01-07 18:10:00,SystemResetWarning,0814.8,5.00,000.00,018.7,017.7,000.0,027.2,020.0,9.9,0000.0,0003.80,0009.30,0003.14
2024-01-07 18:11:00,SystemResetWarning,0814.8,5.00,000.00,018.7,017.7,000.0,027.2,020.0,9.9,0000.0,0003.80,0009.27,0003.12
2024-01-07 18:12:00,SystemResetWarning,0814.8,5.01,000.00,018.7,017.8,000.0,027.2,020.0,9.9,0000.0,0003.78,0009.30,0003.10
2024-01-07 18:13:00,SystemResetWarning,0814.8,5.00,000.00,018.7,017.8,000.0,027.2,020.0,9.9,0000.0,0003.75,0009.36,0003.08
2024-01-07 18:14:00,SystemResetWarning,0814.8,5.00,000.00,018.7,017.8,000.0,027.2,020.0,9.8,0000.0,0003.75,0009.25,0003.05
2024-01-07 18:15:00,SystemResetWarning,0814.8,5.00,000.00,018.7,017.8,000.0,027.2,020.0,9.8,0000.0,0003.74,0008.46,0003.03
2024-01-07 18:16:00,SystemResetWarning,0814.8,4.99,000.00,018.7,017.8,000.0,027.2,020.0,9.7,0000.0,0003.78,0008.06,0003.03
2024-01-07 18:17:00,SystemResetWarning,0814.8,4.99,000.00,018.7,017.8,000.0,027.2,020.0,9.7,0000.0,0003.77,0008.25,0003.05
2024-01-07 18:18:00,SystemResetWarning,0814.7,4.99,000.00,018.7,017.8,000.0,027.2,020.0,9.6,0000.0,0003.79,0008.58,0003.06
2024-01-07 18:19:00,SystemResetWarning,0814.7,5.00,000.00,018.7,017.8,000.0,027.2,020.0,9.6,0000.0,0003.79,0008.54,0003.08
2024-01-07 18:20:00,SystemResetWarning,0814.7,5.01,000.00,018.7,017.8,000.0,027.2,020.0,9.6,0000.0,0003.80,0008.54,0003.08
2024-01-07 18:21:00,SystemResetWarning,0814.6,5.01,000.00,018.7,017.8,000.0,027.2,020.0,9.6,0000.0,0003.79,0009.07,0003.09
2024-01-07 18:22:00,SystemResetWarning,0814.6,5.01,000.00,018.7,017.8,000.0,027.2,020.0,9.6,0000.0,0003.76,0009.07,0003.09
2024-01-07 18:23:00,SystemResetWarning,0814.6,5.00,000.00,018.7,017.8,000.0,027.2,020.0,9.6,0000.0,0003.73,0008.88,0003.08
2024-01-07 18:24:00,SystemResetWarning,0814.5,5.00,000.00,018.7,017.8,000.0,027.2,020.0,9.7,0000.0,0003.72,0009.29,0003.07
2024-01-07 18:25:00,SystemResetWarning,0814.5,4.99,000.00,018.7,017.9,000.0,027.2,020.0,9.7,0000.0,0003.70,0009.08,0003.04
2024-01-07 18:26:00,SystemResetWarning,0814.4,5.00,000.00,018.7,017.9,000.0,027.2,020.0,9.7,0000.0,0003.64,0008.85,0003.02
2024-01-07 18:27:00,SystemResetWarning,0814.4,5.00,000.00,018.7,017.9,000.0,027.1,020.0,9.8,0000.0,0003.57,0008.67,0002.97
2024-01-07 18:28:00,SystemResetWarning,0814.4,5.00,000.00,018.7,017.9,000.0,027.1,020.0,9.8,0000.0,0003.55,0008.52,0002.92
2024-01-07 18:29:00,SystemResetWarning,0814.4,5.00,000.00,018.7,017.9,000.0,027.1,020.0,9.8,0000.0,0003.50,0008.05,0002.85
2024-01-07 18:30:00,SystemResetWarning,0814.3,4.99,000.00,018.7,017.9,000.0,027.1,020.0,9.8,0000.0,0003.49,0008.29,0002.79
2024-01-07 18:31:00,SystemResetWarning,0814.3,5.00,000.00,018.7,017.9,000.0,027.1,020.0,9.8,0000.0,0003.41,0008.44,0002.72
2024-01-07 18:32:00,SystemResetWarning,0814.3,5.00,000.00,018.7,018.0,000.0,027.1,020.0,9.8,0000.0,0003.36,0007.85,0002.66
2024-01-07 18:33:00,SystemResetWarning,0814.3,5.00,000.00,018.7,018.0,000.0,027.1,020.0,9.8,0000.0,0003.32,0007.76,0002.60
2024-01-07 18:34:00,SystemResetWarning,0814.3,5.00,000.00,018.7,018.0,000.0,027.1,020.0,9.8,0000.0,0003.29,0007.86,0002.54
2024-01-07 18:35:00,SystemResetWarning,0814.3,5.00,000.00,018.7,018.0,000.0,027.1,020.0,9.8,0000.0,0003.25,0007.30,0002.51
2024-01-07 18:36:00,SystemResetWarning,0814.3,5.00,000.00,018.7,018.0,000.0,027.1,020.0,9.8,0000.0,0003.21,0007.11,0002.48
2024-01-07 18:37:00,SystemResetWarning,0814.3,5.00,000.00,018.7,018.0,000.0,027.1,020.0,9.8,0000.0,0003.20,0006.98,0002.45
2024-01-07 18:38:00,SystemResetWarning,0814.3,5.00,000.00,018.7,018.0,000.0,027.1,020.0,9.8,0000.0,0003.21,0007.12,0002.43
2024-01-07 18:39:00,SystemResetWarning,0814.3,5.00,000.00,018.7,018.1,000.0,027.1,020.0,9.8,0000.0,0003.20,0007.24,0002.42
2024-01-07 18:40:00,SystemResetWarning,0814.3,5.00,000.00,018.7,018.1,000.0,027.1,020.0,9.8,0000.0,0003.18,0007.18,0002.42
2024-01-07 18:41:00,SystemResetWarning,0814.2,5.00,000.00,018.7,018.1,000.0,027.1,020.0,9.8,0000.0,0003.14,0006.76,0002.42
2024-01-07 18:42:00,SystemResetWarning,0814.2,5.00,000.00,018.7,018.1,000.0,027.1,020.0,9.8,0000.0,0003.12,0006.77,0002.41
2024-01-07 18:43:00,SystemResetWarning,0814.2,5.00,000.00,018.7,018.1,000.0,027.1,020.0,9.8,0000.0,0003.10,0007.06,0002.39
2024-01-07 18:44:00,SystemResetWarning,0814.1,5.00,000.00,018.7,018.1,000.0,027.1,020.1,9.8,0000.0,0003.09,0006.97,0002.38
2024-01-07 18:45:00,SystemResetWarning,0814.1,5.00,000.00,018.7,018.1,000.0,027.1,020.1,9.8,0000.0,0003.08,0006.86,0002.37
2024-01-07 18:46:00,SystemResetWarning,0814.1,5.00,000.00,018.7,018.1,000.0,027.1,020.1,9.8,0000.0,0003.08,0006.81,0002.37
2024-01-07 18:47:00,SystemResetWarning,0814.0,5.00,000.00,018.7,018.1,000.0,027.1,020.1,9.8,0000.0,0003.11,0007.08,0002.37
2024-01-07 18:48:00,SystemResetWarning,0814.0,5.00,000.00,018.8,018.2,000.0,027.1,020.1,9.7,0000.0,0003.11,0007.52,0002.37
2024-01-07 18:49:00,SystemResetWarning,0814.0,5.00,000.00,018.8,018.2,000.0,027.1,020.1,9.6,0000.0,0003.09,0007.52,0002.34
2024-01-07 18:50:00,SystemResetWarning,0813.9,5.00,000.00,018.8,018.2,000.0,027.1,020.1,9.5,0000.0,0003.08,0007.30,0002.32
2024-01-07 18:51:00,SystemResetWarning,0813.9,5.00,000.00,018.8,018.2,000.0,027.1,020.2,9.3,0000.0,0003.05,0007.20,0002.30
2024-01-07 18:52:00,SystemResetWarning,0813.9,5.00,000.00,018.8,018.2,000.0,027.1,020.2,9.2,0000.0,0003.05,0007.09,0002.29
2024-01-07 18:53:00,SystemResetWarning,0813.9,5.00,000.00,018.8,018.2,000.0,027.1,020.2,9.1,0000.0,0003.02,0007.59,0002.27
2024-01-07 18:54:00,SystemResetWarning,0813.8,4.99,000.00,018.8,018.2,000.0,027.1,020.2,8.9,0000.0,0003.01,0007.21,0002.26
2024-01-07 18:55:00,SystemResetWarning,0813.7,5.00,000.00,018.8,018.3,000.0,027.1,020.2,8.9,0000.0,0003.00,0007.16,0002.24
2024-01-07 18:56:00,SystemResetWarning,0813.8,5.00,000.00,018.8,018.3,000.0,027.1,020.2,8.8,0000.0,0002.97,0007.15,0002.23
2024-01-07 18:57:00,SystemResetWarning,0813.7,5.00,000.00,018.8,018.3,000.0,027.1,020.3,8.8,0000.0,0002.91,0007.04,0002.20
2024-01-07 18:58:00,SystemResetWarning,0813.7,5.00,000.00,018.9,018.3,000.0,027.2,020.3,8.7,0000.0,0002.84,0006.77,0002.17
2024-01-07 18:59:00,SystemResetWarning,0813.7,5.00,000.00,018.9,018.3,000.0,027.2,020.3,8.7,0000.0,0002.81,0006.78,0002.15
